Regional Weather Roundup
Issued by NWS

Home | Current Version | Previous Version | Graphics & Text | Print | Product List | Glossary On
Versions: 1 2 3 4 5 6 7 8 9 10 11 12 13 14 15 16 17 18 19 20 21 22 23 24 25 26 27 28 29 30 31 32 33 34 35 36 37 38 39 40 41 42 43 44 45 46 47 48 49 50
000
ASUS43 KMPX 241410
RWRMN
WEATHER ROUNDUP FOR MINNESOTA
NATIONAL WEATHER SERVICE TWIN CITIES/CHANHASSEN MN
800 AM CST WED DEC 24 2014


NOTE: "FAIR" INDICATES FEW OR NO CLOUDS BELOW 12,000 FEET WITH NO
SIGNIFICANT WEATHER AND/OR OBSTRUCTIONS TO VISIBILITY. N/A MEANS
CURRENT SKY AND/OR WEATHER CONDITIONS ARE NOT AVAILABLE.

MNZ060>063-068>070-241500-
   Twin Cities Metro

CITY           SKY/WX    TMP DP  RH WIND       PRES   REMARKS
TWIN CITIES    CLOUDY    34  31  88 N10G18    29.77S WCI  26
ST PAUL        CLOUDY    35  32  88 N9        29.78F WCI  28
CRYSTAL        CLOUDY    35  31  85 N9        29.76F WCI  28
BLAINE         CLOUDY    36  36 100 N12       29.76F
LAKEVILLE      CLOUDY    34  30  86 N8        29.76S WCI  27
EDEN PRAIRIE   CLOUDY    34  31  88 NW6       29.76F WCI  29
SOUTH ST PAUL  CLOUDY    35  32  88 N6        29.76S WCI  30
LAKE ELMO      CLOUDY    34  32  93 N6        29.76F WCI  29
$$
MNZ001>005-007-008-013>017-022>024-027-028-241500-
   Northwest Minnesota

CITY           SKY/WX    TMP DP  RH WIND       PRES   REMARKS
BEMIDJI        SNOW      30  30 100 NW6       29.78F VSB 1/2 WCI  24
HALLOCK        CLOUDY    28  27  93 W8        29.80F WCI  20
ROSEAU         CLOUDY    30  27  86 W3        29.79F
WARROAD        CLOUDY    30  27  86 CALM      29.78F
THIEF RVR FALL CLOUDY    28  27  93 W3        29.81F
CROOKSTON      CLOUDY    28  28 100 NW6       29.84S WCI  22
FOSSTON        CLOUDY    28  27  93 CALM      29.80F FOG
DETROIT LAKES  MIX PCPN  30  30 100 NW7       29.82S VSB 1/4 WCI  23
MOORHEAD       DRIZZLE   30  30 100 NW7       29.85F WCI  23
PARK RAPIDS    CLOUDY    31  29  92 NW6       29.78F WCI  25
MAHNOMEN       CLOUDY    28  28  99 CALM      29.80F FOG
$$
MNZ006-009>011-018-025>026-241500-
   North Central Minnesota

CITY           SKY/WX    TMP DP  RH WIND       PRES   REMARKS
BAUDETTE       CLOUDY    32  30  92 NW3       29.77F
FLAG ISLAND    CLOUDY    30  28  93 NW3       29.77F
INTL FALLS     FOG       32  31  96 CALM      29.77F VSB 1/2
WASKISH        CLOUDY    32  32 100 CALM      29.79S
BIG FORK       FOG       34  30  86 CALM      29.77F VSB 3/4
LONGVILLE      CLOUDY    32  30  93 N3        29.77F FOG
GRAND RAPIDS   CLOUDY    32  30  93 N6        29.76F WCI  26
CRANE LAKE     CLOUDY    30  30 100 CALM      29.79F FOG
ORR            CLOUDY    32  30  93 CALM      29.74F FOG
COOK           CLOUDY    30  30 100 CALM      29.77F
WALKER         CLOUDY    30  29  96 CALM      29.78F
$$
MNZ012-019>021-037-241500-
   Northeast Minnesota

CITY           SKY/WX    TMP DP  RH WIND       PRES   REMARKS
DULUTH         CLOUDY    33  29  85 N8        29.73F WCI  26
ELY            LGT SNOW  30  30 100 CALM      29.75F
HIBBING        CLOUDY    33  30  88 N6        29.76S FOG     WCI  28
EVELETH        CLOUDY    32  32 100 NE3       29.77S
DULUTH HARBOR  CLOUDY    36  32  87 CALM      29.77F
TWO HARBORS    FLURRIES  36  30  80 N5        29.73F
SILVER BAY     CLOUDY    34  30  86 N3        29.73F
GRAND MARAIS     N/A     34  30  85 CALM      29.74F
G MARAIS ARPRT LGT SNOW  28  25  86 NW5       29.70F WCI  23
$$
MNZ029>031-032-039>041-046>048-054>057-064-241500-
   West Central Minnesota

CITY           SKY/WX    TMP DP  RH WIND       PRES   REMARKS
FERGUS FALLS   CLOUDY    28  28 100 NW13      29.86S WCI  18
WHEATON        CLOUDY    27  27 100 NW7       29.87S WCI  19
MORRIS         CLOUDY    30  28  93 NW10      29.83S WCI  21
ALEXANDRIA     CLOUDY    30  29  96 NW8       29.80F WCI  22
ELBOW LAKE     CLOUDY    28  28 100 NW10      29.83S WCI  19
WADENA         CLOUDY    30  28  93 NW5       29.79F WCI  25
GLENWOOD       CLOUDY    30  28  93 NW6       29.81F FOG     WCI  24
APPLETON       CLOUDY    32  28  86 NW12      29.84F WCI  23
BENSON         CLOUDY    30  28  93 N8        29.83F FOG     WCI  23
ORTONVILLE     CLOUDY    28  27  93 NW12      29.85F WCI  18
MADISON        MOCLDY    34  30  86 NW12      29.85F WCI  25
WILLMAR        CLOUDY    32  30  93 NW9       29.83F FOG     WCI  24
$$
MNZ033>034-036-042>043-049>051-058-059-241500-
   Central Minnesota

CITY           SKY/WX    TMP DP  RH WIND       PRES   REMARKS
ST CLOUD       CLOUDY    35  30  82 NW5       29.79F WCI  31
SAUK CENTRE    CLOUDY    31  30  97 NW8       29.80F WCI  23
PAYNESVILLE    CLOUDY    30  29  96 NW3       29.81F
AITKIN         CLOUDY    36  28  75 CALM      29.76F
PINE RIVER     CLOUDY    30  30 100 NW6       29.82F FOG     WCI  24
BRAINERD       CLOUDY    32  30  92 CALM      29.79F
STAPLES        CLOUDY    30  30 100 NW6       29.79F WCI  24
LONG PRAIRIE   CLOUDY    32  30  93 NW6       29.80F WCI  26
LITTLE FALLS   CLOUDY    32  30  93 CALM      29.80F FOG
LITCHFIELD     MIX PCPN  34  34 100 N5        29.80F WCI  30
BUFFALO        CLOUDY    33  30  88 W6        29.80S WCI  28
MAPLE LAKE     CLOUDY    34  32  93 NW7       29.80F WCI  28
$$
MNZ037-044-045-052-053-241500-
   East Central Minnesota

CITY           SKY/WX    TMP DP  RH WIND       PRES   REMARKS
PRINCETON      CLOUDY    34  30  86 NW5       29.78F WCI  30
MORA           CLOUDY    32  30  93 N5        29.79F WCI  27
CAMBRIDGE      CLOUDY    36  28  75 NW3       29.75F
RUSH CITY      CLOUDY    33  31  93 N6        29.76F WCI  28
MOOSE LAKE     CLOUDY    32  32 100 NW3       29.74F
HINCKLEY       CLOUDY    34  32  93 CALM      29.76F
CLOQUET        CLOUDY    34  30  86 NW6       29.74F WCI  29
MCGREGOR       CLOUDY    32  32 100 CALM      29.77F
$$
MNZ071>073-080-081-089-090-097-098-241500-
   Southwest Minnesota

CITY           SKY/WX    TMP DP  RH WIND       PRES   REMARKS
MONTEVIDEO     CLOUDY    30  30 100 N10       29.84F WCI  21
GRANITE FALLS  CLOUDY    31  29  94 NW12      29.85F WCI  22
CANBY          CLOUDY    30  28  92 NW9       29.86F WCI  22
MARSHALL       CLOUDY    30  25  80 NW13      29.84F WCI  20
REDWOOD FALLS  CLOUDY    31  30  96 NW9       29.83F WCI  23
OLIVIA         CLOUDY    30  30 100 NW9       29.82F FOG     WCI  22
PIPESTONE      MIX PCPN  28  28 100 NW10G20   29.82F WCI  19
WINDOM         CLOUDY    30  30 100 NW10      29.82S FOG     WCI  21
WORTHINGTON    CLOUDY    30 -18  11 NW12      29.83S WCI  21
JACKSON        CLOUDY    32  30  93 N12G20    29.82S FOG     WCI  23
TRACY          CLOUDY    31  30  96 NW10      29.84S FOG     WCI  22
SLAYTON        CLOUDY    29  28  98 NW10      29.83F WCI  19
$$
MNZ065>067-074>077-082>085-091>093-241500-
   South Central Minnesota

CITY           SKY/WX    TMP DP  RH WIND       PRES   REMARKS
MANKATO        CLOUDY    34  28  80 NW12      29.78S WCI  25
NEW ULM        CLOUDY    32  30  93 NW14      29.81S WCI  22
FAIRMONT       CLOUDY    32  27  80 NW16      29.78F WCI  21
GLENCOE        CLOUDY    34  32  94 NW8       29.79S WCI  27
FARIBAULT      CLOUDY    34  32  93 NW8       29.76S WCI  27
OWATONNA       CLOUDY    34  32  93 NW8       29.75S FOG     WCI  27
ALBERT LEA     CLOUDY    34  34 100 N12G18    29.74S WCI  25
$$
MNZ078>079-086>088-094>096-241500-
   Southeast Minnesota

CITY           SKY/WX    TMP DP  RH WIND       PRES   REMARKS
ROCHESTER      LGT SNOW  33  31  92 N14       29.71F FOG     WCI  23
RED WING       CLOUDY    36  34  93 NW3       29.74S
STANTON        CLOUDY    35  32  88 NW7       29.74F WCI  29
DODGE CENTER   CLOUDY    34  34 100 N12       29.72F WCI  25
WINONA         CLOUDY    36  32  87 NW8       29.72S
AUSTIN         CLOUDY    34  32  93 N10       29.72F WCI  26
PRESTON        CLOUDY    32  30  91 N14       29.70S WCI  22
$$
ABBREVIATIONS USED IN REMARKS
   TC - TEMPERATURES IN CELSIUS
  WCI - WIND CHILL INDEX
   HX - HEAT INDEX
  VSB - VISIBILITY
$$


USA.gov is the U.S. government's official web portal to all federal, state and local government web resources and services.